FW0734 Weather Reports


time (UTC)temp
F
wind
direction
speed
knots
gust
knots
rain 1hr
in
rain 24hr
in
rain mn
in
humidity
%
barometer
mb
20260504223503 56 352 0.0 1.7 0.00 0.07 0.02 89 1017.7
20260504223003 56 352 0.0 2.6 0.00 0.07 0.02 90 1017.7
20260504222503 56 353 0.9 2.6 0.00 0.07 0.02 90 1017.6
20260504222003 55 354 0.0 2.6 0.00 0.07 0.02 91 1017.6
20260504221524 55 355 0.9 2.6 0.00 0.07 0.02 92 1017.7
20260504221003 55 355 0.9 2.6 0.00 0.07 0.02 93 1017.7
20260504220503 54 357 0.0 1.7 0.00 0.07 0.02 93 1017.6
20260504220003 54 357 0.0 1.7 0.00 0.07 0.02 94 1017.7
20260504215524 54 0 0.0 0.0 0.00 0.07 0.02 94 1017.5
20260504215003 54 0 0.0 0.0 0.00 0.07 0.02 94 1017.5
20260504214503 54 356 0.0 0.9 0.00 0.07 0.02 94 1017.5
20260504214003 54 356 0.0 0.9 0.00 0.07 0.02 94 1017.3
20260504213503 54 0 0.0 0.0 0.00 0.07 0.02 94 1017.2
20260504213003 54 0 0.0 0.0 0.00 0.07 0.02 94 1017.1
20260504212503 54 0 0.0 0.0 0.00 0.07 0.02 94 1017.0
20260504212003 54 0 0.0 0.0 0.00 0.07 0.02 94 1017.0
20260504211503 53 0 0.0 0.0 0.00 0.07 0.02 94 1016.9
20260504211003 53 0 0.0 0.0 0.00 0.07 0.02 94 1016.8
20260504210503 53 0 0.0 0.0 0.00 0.07 0.02 94 1016.7
20260504210024 53 0 0.0 0.0 0.00 0.07 0.02 94 1016.7
20260504205503 53 0 0.0 0.0 0.00 0.07 0.02 94 1016.8
20260504205003 53 0 0.0 0.0 0.00 0.07 0.02 94 1016.7
20260504204503 53 0 0.0 0.0 0.00 0.07 0.02 94 1016.6
20260504204003 54 0 0.0 0.0 0.00 0.07 0.02 94 1016.4
20260504203503 54 0 0.0 0.0 0.00 0.07 0.02 94 1016.4
20260504203003 54 0 0.0 0.0 0.00 0.07 0.02 93 1016.3
20260504202503 54 0 0.0 0.0 0.00 0.07 0.02 94 1016.2
20260504202003 54 0 0.0 0.0 0.00 0.07 0.02 94 1016.1
20260504201503 54 0 0.0 0.0 0.00 0.07 0.02 93 1015.9
20260504201003 54 356 0.0 1.7 0.00 0.07 0.02 94 1015.9
20260504200503 54 356 0.0 1.7 0.00 0.07 0.02 94 1015.9
20260504200003 55 356 0.0 1.7 0.00 0.07 0.02 93 1015.8
20260504195503 55 356 0.0 1.7 0.00 0.07 0.02 94 1015.6
20260504195024 55 356 0.0 1.7 0.00 0.07 0.02 93 1015.7
20260504194503 55 0 0.0 0.0 0.00 0.07 0.02 93 1015.5
20260504194003 55 356 0.0 0.9 0.00 0.07 0.02 94 1015.3
20260504193524 56 356 0.0 0.9 0.00 0.07 0.02 93 1015.3
20260504193003 56 356 0.0 0.9 0.00 0.07 0.02 93 1015.3
20260504192503 56 356 0.0 0.9 0.00 0.07 0.02 94 1015.2
20260504192024 56 357 0.0 0.9 0.00 0.07 0.02 94 1015.2
20260504191524 57 357 0.0 0.9 0.00 0.07 0.02 94 1015.2
20260504191003 57 356 0.0 1.7 0.01 0.07 0.02 94 1015.1
20260504190503 57 356 0.0 1.7 0.01 0.07 0.02 93 1015.2
20260504190003 57 0 0.0 0.0 0.01 0.07 0.02 93 1015.2
20260504185503 58 0 0.0 0.0 0.01 0.07 0.02 93 1015.2
20260504185003 58 0 0.0 0.0 0.01 0.07 0.02 93 1015.1
20260504184503 58 0 0.0 0.0 0.01 0.07 0.02 94 1015.1
20260504184003 58 356 0.0 0.9 0.01 0.07 0.02 94 1015.1
20260504183524 58 356 0.0 0.9 0.01 0.07 0.02 94 1015.1
20260504183003 58 0 0.0 0.0 0.01 0.07 0.02 94 1015.0
20260504182524 58 356 0.0 2.6 0.01 0.07 0.02 94 1014.9
20260504182024 58 356 0.0 2.6 0.01 0.07 0.02 94 1014.7
20260504181524 58 0 0.0 0.0 0.01 0.07 0.02 93 1014.6
20260504181003 58 0 0.0 0.0 0.00 0.06 0.01 93 1014.7
20260504180503 58 0 0.0 0.0 0.00 0.06 0.01 93 1014.6
20260504180003 58 357 0.0 1.7 0.00 0.06 0.01 93 1014.6
20260504175524 58 357 0.0 1.7 0.00 0.06 0.01 93 1014.7
20260504175003 58 356 0.0 3.5 0.00 0.06 0.01 93 1014.7
20260504174524 58 356 0.0 3.5 0.00 0.06 0.01 93 1014.7
20260504174003 58 357 0.0 2.6 0.00 0.06 0.01 93 1014.7
20260504173524 58 357 0.0 2.6 0.00 0.06 0.01 93 1014.6
20260504173003 58 356 0.0 0.9 0.00 0.06 0.01 93 1014.6
20260504172503 58 356 0.0 1.7 0.00 0.06 0.01 93 1014.6
20260504172003 58 356 0.0 1.7 0.00 0.06 0.01 93 1014.7
20260504171524 59 0 0.0 0.0 0.00 0.06 0.01 92 1014.8
20260504171002 59 0 0.0 0.0 0.00 0.06 0.01 92 1014.8
20260504170523 59 0 0.0 0.0 0.00 0.06 0.01 93 1014.9
20260504151023 62 0 0.0 0.0 0.01 0.06 0.01 91 1014.6
20260504150502 62 357 0.0 2.6 0.01 0.06 0.01 91 1014.8
20260504141002 64 358 0.0 2.6 0.00 0.06 0.00 88 1014.8
20260504140502 64 358 0.0 1.7 0.00 0.06 0.00 88 1015.0
20260504130502 65 0 0.0 0.0 0.00 0.06 0.06 85 1014.6
20260504110502 66 18 0.0 2.6 0.00 0.06 0.06 84 1014.3
20260504100502 66 29 0.9 5.2 0.00 0.06 0.06 83 1013.9
20260504081523 66 31 1.7 5.2 0.00 0.06 0.06 86 1013.9
20260504081002 66 31 0.9 5.2 0.00 0.06 0.06 86 1013.8
20260504080523 66 31 0.9 3.5 0.00 0.06 0.06 86 1013.6
20260504050502 65 31 0.9 3.5 0.00 0.06 0.06 91 1013.3
20260504050023 64 31 0.9 3.5 0.00 0.06 0.06 91 1013.3
20260504045502 64 31 0.0 2.6 0.00 0.06 0.06 91 1013.4
20260504045002 64 31 0.9 5.2 0.00 0.06 0.06 91 1013.4
20260504044502 64 31 0.9 5.2 0.00 0.06 0.06 92 1013.3
20260504044002 64 31 0.0 4.3 0.00 0.06 0.06 92 1013.4
20260504043502 64 31 0.9 3.5 0.00 0.06 0.06 92 1013.5
20260504043002 64 31 1.7 4.3 0.00 0.06 0.06 92 1013.4
20260504042502 64 31 0.9 4.3 0.00 0.06 0.06 92 1013.5
20260504042023 64 31 0.0 3.5 0.00 0.06 0.06 92 1013.7
20260504041502 64 31 0.0 2.6 0.00 0.06 0.06 92 1013.7
20260504041002 64 0 0.0 0.0 0.00 0.06 0.06 92 1013.8
20260504040502 64 0 0.0 0.0 0.00 0.06 0.06 92 1013.7
20260504040002 64 0 0.0 0.0 0.00 0.06 0.06 92 1013.8
20260504035502 64 0 0.0 0.0 0.00 0.06 0.06 92 1013.9
20260504035002 64 0 0.0 0.0 0.00 0.06 0.06 92 1013.9
20260504034502 64 0 0.0 0.0 0.00 0.06 0.06 92 1013.9
20260504034002 64 0 0.0 0.0 0.00 0.06 0.06 92 1013.9
20260504033523 64 0 0.0 0.0 0.01 0.06 0.06 92 1014.0
20260504033002 64 0 0.0 0.0 0.01 0.06 0.06 92 1014.2
20260504032502 64 31 0.0 0.9 0.02 0.06 0.06 92 1014.1
20260504032002 64 31 0.0 1.7 0.02 0.06 0.06 92 1014.3
20260504031502 64 31 0.0 1.7 0.02 0.06 0.06 92 1014.4
20260504031023 64 31 0.0 1.7 0.02 0.06 0.06 92 1014.5
20260504030502 64 31 0.0 1.7 0.02 0.06 0.06 92 1014.6
20260504030002 64 31 0.0 1.7 0.02 0.06 0.06 91 1014.5
20260504025502 64 0 0.0 0.0 0.03 0.06 0.06 91 1014.7
20260504025002 64 0 0.0 0.0 0.03 0.06 0.06 91 1014.9
20260504024502 64 0 0.0 0.0 0.04 0.06 0.06 91 1015.1
20260504024002 64 0 0.0 0.0 0.04 0.06 0.06 91 1015.1
20260504023502 64 0 0.0 0.0 0.03 0.05 0.05 91 1015.3
20260504023023 64 0 0.0 0.0 0.04 0.05 0.05 91 1015.4
20260504022502 64 0 0.0 0.0 0.04 0.04 0.04 90 1015.5
20260504022002 64 0 0.0 0.0 0.04 0.04 0.04 90 1015.5
20260504021502 65 31 0.0 0.9 0.04 0.04 0.04 89 1015.6
20260504021002 65 31 0.0 1.7 0.03 0.03 0.03 89 1015.7
20260504020502 65 31 0.0 1.7 0.03 0.03 0.03 88 1015.8
20260504020023 65 31 0.0 1.7 0.03 0.03 0.03 88 1015.9
20260504015502 66 31 0.0 0.9 0.02 0.02 0.02 88 1016.0
20260504015002 66 31 0.0 0.9 0.02 0.02 0.02 87 1016.1
20260504014502 66 31 0.0 1.7 0.02 0.02 0.02 87 1016.1
20260504014002 67 31 0.0 1.7 0.02 0.02 0.02 86 1016.2
20260504013502 67 0 0.0 0.0 0.02 0.02 0.02 86 1016.1
20260504013002 67 0 0.0 0.0 0.01 0.01 0.01 86 1016.2
20260504012502 67 31 0.0 1.7 0.00 0.00 0.00 85 1016.3
20260504012002 67 31 0.0 1.7 0.00 0.00 0.00 84 1016.3
20260504011502 67 0 0.0 0.0 0.00 0.00 0.00 83 1016.4
20260504011002 67 0 0.0 0.0 0.00 0.00 0.00 83 1016.5
20260504010502 68 0 0.0 0.0 0.00 0.00 0.00 83 1016.5
20260504010002 68 0 0.0 0.0 0.00 0.00 0.00 82 1016.5
20260504005523 68 0 0.0 0.0 0.00 0.00 0.00 82 1016.5
20260504005002 68 0 0.0 0.0 0.00 0.00 0.00 82 1016.5
20260504004502 68 0 0.0 0.0 0.00 0.00 0.00 81 1016.5
20260504004002 68 31 0.0 0.9 0.00 0.00 0.00 81 1016.3
20260504003502 68 31 0.0 0.9 0.00 0.00 0.00 82 1016.3
20260504003002 68 31 0.0 2.6 0.00 0.00 0.00 82 1016.3
20260504002502 67 31 0.0 2.6 0.00 0.00 0.00 83 1016.2
20260504002002 67 31 0.0 2.6 0.00 0.00 0.00 84 1016.2
20260504001502 67 31 0.9 2.6 0.00 0.00 0.00 85 1016.1
20260504001002 67 31 0.0 2.6 0.00 0.00 0.00 86 1016.1
20260504000502 66 31 0.0 1.7 0.00 0.00 0.00 86 1016.2
20260504000023 66 31 0.0 1.7 0.00 0.00 0.00 86 1016.2
20260503235502 66 31 0.0 1.7 0.00 0.00 0.00 86 1016.2
20260503235002 66 0 0.0 0.0 0.00 0.00 0.00 87 1016.2
20260503234523 66 0 0.0 0.0 0.00 0.00 0.00 86 1016.3
20260503234002 66 0 0.0 0.0 0.00 0.00 0.00 86 1016.4
20260503233502 66 0 0.0 0.0 0.00 0.00 0.00 86 1016.2
20260503233002 66 0 0.0 0.0 0.00 0.00 0.00 85 1016.2
20260503232502 66 0 0.0 0.0 0.00 0.00 0.00 86 1016.2
20260503232002 66 31 0.0 1.7 0.00 0.00 0.00 86 1016.3
20260503231502 65 31 0.0 1.7 0.00 0.00 0.00 86 1016.5
20260503231002 65 31 0.0 0.9 0.00 0.00 0.00 85 1016.6
20260503230502 65 31 0.0 0.9 0.00 0.00 0.00 86 1016.5
20260503230002 65 31 0.0 0.9 0.00 0.00 0.00 86 1016.4
20260503225502 65 31 0.0 1.7 0.00 0.00 0.00 86 1016.3
20260503225002 64 31 0.0 1.7 0.00 0.00 0.00 86 1016.3
20260503224523 64 31 0.0 1.7 0.00 0.00 0.00 87 1016.2
20260503224002 64 31 0.0 2.6 0.00 0.00 0.00 87 1016.2